Regional Weather Roundup
Issued by NWS

Home | Current Version | Previous Version | Graphics & Text | Print | Product List | Glossary On
Versions: 1 2 3 4 5 6 7 8 9 10 11 12 13 14 15 16 17 18 19 20 21 22 23 24 25 26 27 28 29 30 31 32 33 34 35 36 37 38 39 40 41 42 43 44 45 46 47 48 49 50
000
ASUS43 KFSD 021610
RWRSD

WEATHER ROUNDUP FOR SOUTH DAKOTA
NATIONAL WEATHER SERVICE SIOUX FALLS SD
1100 AM CDT TUE SEP 02 2014

NOTE: "FAIR" INDICATES FEW OR NO CLOUDS BELOW 12,000 FEET WITH NO
SIGNIFICANT WEATHER AND/OR OBSTRUCTIONS TO VISIBILITY.


SDZ001>005-009-010-012>017-021700-
NORTHWEST AND NORTH CENTRAL SOUTH DAKOTA

CITY           SKY/WX    TMP DP  RH WIND       PRES   REMARKS
BUFFALO          N/A     66  46  48 W18       29.83F
FAITH            N/A     69  49  48 SW12      29.89F
MOBRIDGE       SUNNY     67  55  65 S8        29.85F
$$

SDZ012>016-024>037-041>051-057-063-072>074-021700-
SOUTHWEST AND SOUTH CENTRAL SOUTH DAKOTA

CITY           SKY/WX    TMP DP  RH WIND       PRES   REMARKS
RAPID CTY ARPT SUNNY     71  46  40 S13       29.94F
PIERRE         SUNNY     68  52  56 SW9       29.90S
CUSTER         SUNNY     63  39  41 SW6       30.05F
ELLSWORTH AFB  SUNNY     71  49  46 S12       29.93F
PHILIP         SUNNY     69  50  50 W16       29.93F
PINE RIDGE     SUNNY     68  50  52 S9        29.98F
WINNER         FAIR      72  51  47 SW6       29.96S
$$

SDZ004>011-016>023-039-040-021700-
NORTHEAST SOUTH DAKOTA

CITY           SKY/WX    TMP DP  RH WIND       PRES   REMARKS
ABERDEEN       SUNNY     65  56  72 S9        29.88S
WATERTOWN      SUNNY     67  53  61 SW8       29.91S
SISSETON         N/A     73  53  49 W10       29.86S
$$

SDZ017-020-022-023-036>040-048>070-021700-
SOUTHEAST SOUTH DAKOTA

CITY           SKY/WX    TMP DP  RH WIND       PRES   REMARKS
SIOUX FALLS    MOSUNNY   68  58  70 SW6       29.96R
HURON          SUNNY     69  55  60 SW7       29.92S
CHAMBERLAIN    SUNNY     68  55  63 SW7       29.95S
MITCHELL       SUNNY     68  57  68 SW5       29.96R
YANKTON        SUNNY     66  55  68 CALM      29.97F
$$

ABBREVIATIONS USED IN REMARKS
   TC - TEMPERATURE IN CELSIUS
  WCI - WIND CHILL INDEX
   HX - HEAT INDEX
  VSB - VISIBILITY



USA.gov is the U.S. government's official web portal to all federal, state and local government web resources and services.